Location: Unspecified
(47.5370°N, 14.6980°E)
Time: 02:02:04
(UTC+00:00)

Daily predictions for brighter satellites

Satellite Brightness Start Highest point End
(mag) Time Altitude Azimuth Time Altitude Azimuth Time Altitude Azimuth
ISS -1.1 00:05:56 10° ESE 00:05:56 10° ESE 00:05:58 10° ESE
USA 308 2.5 00:03:21 10° WNW 00:07:04 86° SSW 00:11:19 10° ESE
CZ-4C R/B 2.9 00:03:49 10° NNE 00:07:25 84° WNW 00:08:18 48° SSW
Okean 1 Rocket 3.6 00:04:12 10° N 00:08:27 53° ENE 00:10:56 23° SSE
Cosmos 1656 4.2 00:05:18 22° SW 00:08:42 52° WNW 00:14:10 10° NNE
SL-8 R/B 4.3 00:08:29 10° W 00:12:43 33° SW 00:12:43 33° SW
Cosmos 2242 Rocket 3.9 00:12:14 33° SW 00:13:58 55° WNW 00:18:21 10° N
Cosmos 1535 Rocket 4.4 00:07:51 10° N 00:14:08 88° WSW 00:18:04 24° S
Cosmos 2151 Rocket 3.5 00:10:22 10° N 00:14:52 88° W 00:16:58 31° S
Aureole 3 4.3 00:16:05 28° SSW 00:19:27 71° W 00:24:47 10° N
DELTA 2 DEB (DPAF) 3.5 00:21:21 10° N 00:24:54 76° WNW 00:26:02 40° SSW
Spot 1 4.4 00:28:12 10° NNE 00:33:00 70° ESE 00:35:31 26° S
Geosat 4.0 00:29:55 10° NNE 00:34:56 79° ESE 00:37:46 26° SSW
USA 229 DEB 3.6 00:36:00 21° SW 00:40:14 77° NW 00:47:03 10° NE
USA 229 3.6 00:36:03 21° SW 00:40:16 78° NW 00:47:06 10° NE
USA 215 3.8 00:38:27 19° S 00:42:19 35° SW 00:48:12 10° WNW
CZ-2C R/B 4.5 00:40:44 13° WSW 00:42:36 15° W 00:45:37 10° NW
Cosmos 2221 Rocket 3.6 00:41:08 27° S 00:43:34 86° W 00:48:08 10° N
Cosmos 405 Rocket 3.7 00:43:35 20° W 00:44:15 22° WNW 00:46:40 10° NNW
Meteor 1-27 4.3 00:39:47 10° N 00:45:37 84° E 00:50:39 14° SSE
ADEOS Rocket 2.9 00:39:47 10° NNE 00:45:40 72° ESE 00:49:29 21° S
Cosmos 1697 Rocket 2.7 00:44:14 23° SW 00:47:47 74° WNW 00:53:25 10° NNE
Cosmos 676 Rocket 4.0 00:44:56 25° SSW 00:48:01 72° WNW 00:53:12 10° NNE
Cosmos 968 Rocket 3.5 00:45:54 24° SSW 00:49:05 77° ESE 00:54:21 10° NNE
Cosmos 1455 Rocket 3.1 00:45:46 10° N 00:50:08 75° E 00:53:28 17° SSE
Resurs 1-4 Rocket 4.1 00:48:43 10° NE 00:52:45 22° E 00:56:46 10° SE
Cosmos 332 Rocket 4.3 00:50:15 22° SW 00:53:04 49° WNW 00:57:41 10° NNE
BREEZE-M DEB (TANK) 4.0 00:38:11 10° W 00:54:23 77° N 00:58:24 10° E
FENGYUN 3A 3.9 00:49:11 10° NNE 00:54:32 64° ESE 00:58:31 18° S
SL-24 R/B - RUBIN 2 3.7 00:50:45 10° NW 00:55:19 64° SW 01:00:18 10° SSE
Cosmos 1153 Rocket 4.4 00:49:13 10° N 00:55:23 80° W 01:00:25 16° S
Cosmos 2251 Rocket 4.4 00:51:58 18° WSW 00:55:34 41° WNW 01:00:38 10° N
Sich 1 Rocket 3.8 00:52:32 10° NNW 00:56:59 58° W 00:59:37 23° SSW
Cosmos 2173 Rocket 4.3 00:51:37 10° N 00:57:53 69° E 01:04:01 10° SSE
Cosmos 2227 Rocket 2.2 00:54:27 10° NNW 01:00:02 61° WSW 01:05:06 12° S
Nimbus 7 Rocket 4.4 00:56:45 10° NNE 01:02:38 80° WNW 01:06:54 19° SSW
NOSS 3-2 (A) 4.0 00:55:24 10° NW 01:02:43 78° SW 01:11:33 10° SSE
Cosmos 1437 Rocket 2.3 00:59:20 10° N 01:02:45 89° ENE 01:04:56 21° S
SL-24 DEB 4.2 00:59:43 16° S 01:03:11 80° E 01:07:39 10° N
Cosmos 841 Rocket 4.1 01:01:01 10° NW 01:05:48 38° WSW 01:08:46 20° SSW
Cosmos 1782 2.5 01:03:11 10° NNW 01:06:39 62° W 01:08:35 24° S
Cosmos 2292 Rocket 3.4 01:05:31 25° SSW 01:07:35 67° WNW 01:12:08 10° N
Cosmos 1727 Rocket 4.0 01:02:56 18° S 01:07:41 85° W 01:13:53 10° N
NPP 3.7 01:05:36 10° NNE 01:11:02 85° ESE 01:15:15 17° SSW
Envisat 4.1 01:07:49 10° NNE 01:12:35 40° E 01:17:19 10° SSE
H-2A R/B 3.7 01:09:17 10° NE 01:13:38 27° E 01:17:51 10° SSE
ACS3 Solar Sail 3.6 01:11:13 10° NNW 01:14:40 17° WNW 01:18:10 10° W
Cosmos 1741 Rocket 4.1 01:15:14 18° SSW 01:19:15 80° ESE 01:24:33 10° NNE
Cosmos 1862 2.9 01:17:10 21° SSW 01:19:23 82° W 01:22:59 10° N
IDEFIX/ARIANE 42P 2.7 01:14:57 10° N 01:20:06 62° WNW 01:24:01 17° SSW
SL-4 R/B 2.0 01:18:26 10° W 01:21:16 31° SW 01:24:03 10° SSE
Cosmos 1850 Rocket 4.0 01:17:56 18° SSW 01:21:49 88° ESE 01:27:03 10° NNE
Cosmos 292 Rocket 4.5 01:21:40 17° SW 01:25:03 42° WNW 01:29:34 10° N
Cosmos 2100 Rocket 4.0 01:18:59 10° NNW 01:25:13 75° W 01:31:21 10° S
Cosmos 2297 Rocket 3.9 01:25:03 10° WNW 01:28:18 16° W 01:30:22 13° WSW
NOSS 3 (A) 4.0 01:28:15 33° WNW 01:28:30 36° NW 01:30:00 10° NNE
USA 308 3.9 01:25:30 10° W 01:28:43 23° SW 01:30:53 15° S
MSX 4.1 01:23:13 10° N 01:28:50 56° WNW 01:33:28 15° SW
Cosmos 1725 Rocket 4.2 01:23:47 10° N 01:30:04 77° E 01:36:21 10° SSE
Cosmos 2228 3.1 01:26:57 10° NNW 01:31:07 59° W 01:34:44 13° S
ATLAS 3B R/B 3.4 01:28:13 11° WSW 01:35:33 59° NW 01:43:21 10° NE
Cosmos 2263 Rocket 2.5 01:32:05 10° NW 01:37:27 47° WSW 01:42:48 10° S
Cosmos 2219 3.2 01:31:51 10° NNW 01:37:34 87° WSW 01:43:16 10° SSE
CENTAUR R/B 4.2 01:30:33 10° WNW 01:37:34 28° WSW 01:45:08 10° SSW
Cosmos 1980 Rocket 2.4 01:33:07 15° SW 01:37:48 67° WNW 01:43:30 10° NNE
Cosmos 158 Rocket 3.8 01:34:16 10° NNW 01:39:07 70° WSW 01:43:55 10° SSE
NOSS 2-3 (D) 4.3 01:35:09 10° NW 01:40:10 90° NE 01:46:55 10° SE
ISS -3.6 01:38:51 17° SW 01:41:14 59° SSE 01:44:35 10° ENE
ADEOS II 3.2 01:41:47 10° NNE 01:46:43 41° E 01:51:37 10° SSE
SL-19 R/B 4.0 01:44:26 12° S 01:47:08 45° WSW 01:50:01 10° NNW
Cosmos 1844 Rocket 3.6 01:45:34 10° NNW 01:51:03 52° ENE 01:56:32 10° SE
Cosmos 2237 4.4 01:45:48 12° SSW 01:51:13 77° ESE 01:56:58 10° NNE
ALOS 2.6 01:49:31 10° NNE 01:54:03 63° ESE 01:58:33 10° S
NOSS 3-2 (C) 4.1 01:48:20 10° NW 01:55:40 81° SW 02:04:31 10° SSE
CZ-2D R/B 2.4 01:53:44 10° NNE 01:59:09 69° ESE 02:04:27 10° S
Cosmos 1975 Rocket 3.6 01:55:37 12° SW 01:59:15 41° WNW 02:03:20 10° N
Cosmos 2360 Rocket 4.1 01:58:21 10° SSE 02:02:51 25° ESE 02:07:22 10° NE
Cosmos 2058 3.6 02:00:17 12° SW 02:03:34 35° WNW 02:07:13 10° N
Cosmos 2233 Rocket 4.1 01:57:37 10° N 02:03:57 87° W 02:10:17 10° S
Cosmos 1802 Rocket 4.2 01:59:07 10° NNW 02:05:22 57° W 02:11:37 10° SSW
Cosmos 2082 3.8 02:03:31 10° NNW 02:09:05 59° WSW 02:14:38 10° S
SL-16 R/B 3.8 02:10:07 10° SE 02:15:57 46° ENE 02:21:47 10° N
SL-16 R/B 2.7 02:13:00 10° S 02:18:34 61° ESE 02:24:10 10° NNE
USA 59 Rocket 1.1 02:20:12 10° NNW 02:23:20 42° NE 02:27:17 10° ESE
Cosmos 1933 3.8 02:20:16 10° NNW 02:23:49 39° W 02:27:21 10° SSW
Cosmos 1606 Rocket 4.0 02:20:02 10° N 02:24:27 68° ENE 02:28:52 10° SSE
NOSS 8 (A) 4.2 02:21:55 10° NW 02:24:45 51° SW 02:27:54 10° SSE
Cosmos 2227 4.3 02:20:18 10° NNW 02:26:04 90° NE 02:31:45 10° SSE
